Regional Weather Roundup
Issued by NWS Little Rock, AR

Home | Current Version | Previous Version | Graphics & Text | Print | Product List | Glossary On
Versions: 1 2 3 4 5 6 7 8 9 10 11 12 13 14 15 16 17 18 19 20 21 22 23 24 25 26 27 28 29 30 31 32
000
ASUS44 KLZK 261705
RWRLZK

WEATHER ROUNDUP FOR ARKANSAS
NATIONAL WEATHER SERVICE LITTLE ROCK AR
1200 PM CDT WED JUL 26 2017

NOTE: "FAIR" INDICATES FEW OR NO CLOUDS BELOW 12,000 FEET WITH NO
SIGNIFICANT WEATHER AND/OR OBSTRUCTIONS TO VISIBILITY.

ARZ001-003-010-029-261800-
NORTHWEST ARKANSAS

CITY           SKY/WX    TMP DP  RH WIND       PRES   REMARKS
FAYETTEVILLE   PTSUNNY   86  74  67 SW8       30.11F HX  94
FORT SMITH     SUNNY     92  74  55 S7        30.07F HX 101
HARRISON       MOSUNNY   89  71  55 VRB7      30.12F HX  95
BENTONVILLE    MOSUNNY   90  72  55 SW8G16    30.12F HX  96
ROGERS         CLOUDY    89  73  59 W12       30.12S HX  97
SILOAM SPGS    PTSUNNY   91  72  52 SW12G17   30.10S HX  98
HIGHFILL       PTSUNNY   91  72  53 SW12      30.11F HX  98
SPRINGDALE     SUNNY     88  72  58 SW9       30.13F HX  94
$$

ARZ004-005-016-261800-
NORTH CENTRAL ARKANSAS

CITY           SKY/WX    TMP DP  RH WIND       PRES   REMARKS
BATESVILLE     SUNNY     93  72  49 W8        30.09F HX 100
FLIPPIN        MOSUNNY   91  66  43 SW8       30.07F HX  94
MTN HOME       MOSUNNY   90  72  55 SW7       30.10F HX  97
$$

ARZ040-041-261800-
WEST CENTRAL ARKANSAS

CITY           SKY/WX    TMP DP  RH WIND       PRES   REMARKS
MENA           SUNNY     91  72  52 SW6       30.13S HX  98
MOUNT IDA      MOSUNNY   92  68  45 VRB3      30.09F HX  96
$$

ARZ009-017-025-026-028-261800-
NORTHEAST ARKANSAS

CITY           SKY/WX    TMP DP  RH WIND       PRES   REMARKS
CORNING        LGT RAIN  93  81  66 SW8       30.08S HX 113
JONESBORO      SUNNY     92  79  65 SW10G18   30.08F HX 108
WALNUT RIDGE   SUNNY     93  73  52 CALM      30.07F HX 102
BLYTHEVILLE    MOSUNNY   91  77  63 SW6       30.09S HX 104
NW BLYTHEVILLE MOSUNNY   93  73  52 SW13      30.08F HX 102
$$

ARZ022-023-033-042-044-261800-
CENTRAL ARKANSAS

CITY           SKY/WX    TMP DP  RH WIND       PRES   REMARKS
LITTLE ROCK    MOSUNNY   91  75  59 S9        30.09F HX 101
N LITTLE ROCK    N/A     89  75  63 W3        30.07F HX  99
JACKSONVILLE   SUNNY     92  74  56 SW8       30.09F HX 101
CONWAY           N/A     91  73  55 W7        30.06F HX 100
SEARCY         MOSUNNY   91  78  65 VRB6      30.11F HX 106
HOT SPRINGS    MOSUNNY   91  74  57 SW7       30.11S HX 100
RUSSELLVILLE   SUNNY     90  74  59 VRB3      30.08F HX  99
CLINTON        FAIR      90  73  58 SW6       30.09F HX  98
$$

ARZ036-261800-
EAST ARKANSAS

CITY           SKY/WX    TMP DP  RH WIND       PRES   REMARKS
WEST MEMPHIS   SUNNY     91  78  65 VRB6      30.09S HX 106
$$

ARZ050-053-066-070-073-261800-
SOUTHWEST ARKANSAS

CITY           SKY/WX    TMP DP  RH WIND       PRES   REMARKS
ARKADELPHIA    FAIR      90  77  65 W6        30.11S HX 103
CAMDEN         PTSUNNY   91  73  55 NW5       30.11S HX 100
TEXARKANA      SUNNY     89  71  55 SW10      30.11S HX  95
EL DORADO      SUNNY     90  74  59 MISG      30.12F HX  99
DE QUEEN       SUNNY     89  75  63 VRB7      30.08F HX  99
$$

ARZ056-057-069-261800-
SOUTHEAST ARKANSAS

CITY           SKY/WX    TMP DP  RH WIND       PRES   REMARKS
PINE BLUFF     SUNNY     89  74  60 NW5       30.11S HX  98
STUTTGART      SUNNY     91  68  46 W7        30.11F HX  95
MONTICELLO     SUNNY     90  74  59 VRB5      30.11F HX  99

$$






USA.gov is the U.S. government's official web portal to all federal, state and local government web resources and services.